• In Netherlands
  • List of Countries
  • For 7 days
  • Water Temperature
  • Satellite Maps
  • Weather Map
  • Weather Widgets
  • user-avatar
    Login

    Hourly Weather Giumri

    Today, 26 May, Friday

    Time Temperature Precipitation Wind Pressure Humidity
    00:00 +8°C° 0.1 mm 1 mps 633 mmHg 92%
    01:00 +7°C° 0 mm 1 mps 633 mmHg 93%
    02:00 +7°C° 0 mm 1 mps 633 mmHg 94%
    03:00 +7°C° 0 mm 1 mps 632 mmHg 94%
    04:00 +8°C° 0.1 mm 1 mps 633 mmHg 92%
    05:00 +9°C° 0.1 mm 1 mps 633 mmHg 89%
    06:00 +10°C° 0.1 mm 1 mps 634 mmHg 87%
    07:00 +12°C° 0 mm 1 mps 634 mmHg 79%
    08:00 +14°C° 0 mm 1 mps 634 mmHg 71%
    09:00 +16°C° 0 mm 2 mps 635 mmHg 62%
    10:00 +17°C° 0.1 mm 2 mps 635 mmHg 58%
    11:00 +18°C° 0.1 mm 3 mps 635 mmHg 55%
    12:00 +19°C° 0.1 mm 3 mps 635 mmHg 51%
    13:00 +19°C° 0.4 mm 3 mps 635 mmHg 52%
    14:00 +19°C° 0.4 mm 3 mps 634 mmHg 54%
    15:00 +19°C° 0.4 mm 3 mps 634 mmHg 56%
    16:00 +18°C° 0.7 mm 3 mps 633 mmHg 61%
    17:00 +17°C° 0.7 mm 2 mps 633 mmHg 66%
    18:00 +16°C° 0.7 mm 2 mps 633 mmHg 71%
    19:00 +14°C° 0.7 mm 1 mps 632 mmHg 76%
    20:00 +12°C° 0.7 mm 1 mps 632 mmHg 80%
    21:00 +9°C° 0.7 mm 1 mps 631 mmHg 84%
    22:00 +9°C° 0.3 mm 1 mps 631 mmHg 86%
    23:00 +9°C° 0.3 mm 1 mps 631 mmHg 87%

    Tomorrow, 27 May, Saturday

    Time Temperature Precipitation Wind Pressure Humidity
    00:00 +8°C° 0.3 mm 1 mps 631 mmHg 89%
    01:00 +8°C° 0.1 mm 1 mps 631 mmHg 89%
    02:00 +8°C° 0.1 mm 1 mps 631 mmHg 89%
    03:00 +8°C° 0.1 mm 1 mps 631 mmHg 89%
    04:00 +9°C° 0.2 mm 1 mps 631 mmHg 87%
    05:00 +10°C° 0.2 mm 1 mps 631 mmHg 85%
    06:00 +11°C° 0.2 mm 1 mps 632 mmHg 82%
    07:00 +13°C° 0.1 mm 2 mps 632 mmHg 77%
    08:00 +14°C° 0.1 mm 2 mps 632 mmHg 71%
    09:00 +16°C° 0.1 mm 3 mps 633 mmHg 66%
    10:00 +17°C° 0.4 mm 3 mps 633 mmHg 62%
    11:00 +18°C° 0.4 mm 4 mps 633 mmHg 59%
    12:00 +19°C° 0.4 mm 4 mps 633 mmHg 55%
    13:00 +19°C° 0.9 mm 4 mps 632 mmHg 57%
    14:00 +19°C° 0.9 mm 4 mps 632 mmHg 58%
    15:00 +19°C° 0.9 mm 4 mps 632 mmHg 60%
    16:00 +19°C° 0.7 mm 3 mps 632 mmHg 64%
    17:00 +18°C° 0.7 mm 3 mps 631 mmHg 68%
    18:00 +17°C° 0.7 mm 2 mps 631 mmHg 72%
    19:00 +15°C° 0.5 mm 2 mps 631 mmHg 77%
    20:00 +12°C° 0.5 mm 1 mps 630 mmHg 82%
    21:00 +9°C° 0.5 mm 1 mps 630 mmHg 87%
    22:00 +9°C° 0.2 mm 1 mps 630 mmHg 87%
    23:00 +8°C° 0.2 mm 1 mps 630 mmHg 88%

    Day after tomorrow, 28 May, Sunday

    Time Temperature Precipitation Wind Pressure Humidity
    00:00 +8°C° 0.2 mm 1 mps 630 mmHg 89%
    01:00 +8°C° 0.1 mm 1 mps 630 mmHg 89%
    02:00 +7°C° 0.1 mm 1 mps 630 mmHg 89%
    03:00 +7°C° 0.1 mm 1 mps 630 mmHg 90%
    04:00 +9°C° 0 mm 1 mps 631 mmHg 87%
    05:00 +10°C° 0 mm 1 mps 631 mmHg 84%
    06:00 +11°C° 0 mm 0 mps 632 mmHg 82%
    07:00 +14°C° 0 mm 1 mps 633 mmHg 74%
    08:00 +16°C° 0 mm 2 mps 633 mmHg 66%
    09:00 +18°C° 0 mm 2 mps 634 mmHg 57%
    10:00 +19°C° 0.1 mm 3 mps 634 mmHg 53%
    11:00 +20°C° 0.1 mm 3 mps 634 mmHg 49%
    12:00 +21°C° 0.1 mm 4 mps 634 mmHg 44%
    13:00 +21°C° 0.3 mm 4 mps 634 mmHg 45%
    14:00 +21°C° 0.3 mm 4 mps 634 mmHg 46%
    15:00 +21°C° 0.3 mm 5 mps 634 mmHg 47%
    16:00 +20°C° 0.5 mm 4 mps 634 mmHg 54%
    17:00 +18°C° 0.5 mm 3 mps 634 mmHg 61%
    18:00 +17°C° 0.5 mm 3 mps 634 mmHg 67%
    19:00 +15°C° 0.3 mm 2 mps 633 mmHg 73%
    20:00 +12°C° 0.3 mm 2 mps 633 mmHg 78%
    21:00 +10°C° 0.3 mm 1 mps 633 mmHg 84%
    22:00 +9°C° 0.1 mm 1 mps 633 mmHg 85%
    23:00 +9°C° 0.1 mm 1 mps 633 mmHg 86%

    29 May, Monday

    Time Temperature Precipitation Wind Pressure Humidity
    00:00 +8°C° 0.1 mm 1 mps 633 mmHg 87%
    01:00 +8°C° 0 mm 1 mps 633 mmHg 88%
    02:00 +7°C° 0 mm 1 mps 633 mmHg 89%
    03:00 +7°C° 0 mm 1 mps 633 mmHg 90%
    04:00 +8°C° 0 mm 1 mps 633 mmHg 87%
    05:00 +10°C° 0 mm 1 mps 634 mmHg 85%
    06:00 +11°C° 0 mm 1 mps 635 mmHg 82%
    07:00 +14°C° 0 mm 1 mps 636 mmHg 73%
    08:00 +16°C° 0 mm 1 mps 636 mmHg 65%
    09:00 +19°C° 0 mm 1 mps 637 mmHg 56%
    10:00 +19°C° 0.1 mm 2 mps 637 mmHg 53%
    11:00 +20°C° 0.1 mm 2 mps 637 mmHg 50%
    12:00 +21°C° 0.1 mm 2 mps 637 mmHg 47%
    13:00 +21°C° 0.4 mm 2 mps 637 mmHg 48%
    14:00 +21°C° 0.4 mm 2 mps 637 mmHg 49%
    15:00 +21°C° 0.4 mm 2 mps 637 mmHg 50%
    16:00 +20°C° 0.6 mm 2 mps 636 mmHg 56%
    17:00 +21°C° 0.6 mm 1 mps 636 mmHg 62%
    18:00 +20°C° 0.6 mm 1 mps 636 mmHg 68%
    19:00 +16°C° 0.6 mm 1 mps 636 mmHg 75%
    20:00 +14°C° 0.6 mm 2 mps 635 mmHg 81%
    21:00 +12°C° 0.6 mm 2 mps 635 mmHg 88%
    22:00 +12°C° 0.3 mm 2 mps 635 mmHg 90%
    23:00 +10°C° 0.3 mm 2 mps 635 mmHg 92%

    30 May, Tuesday

    Time Temperature Precipitation Wind Pressure Humidity
    00:00 +10°C° 0.3 mm 2 mps 635 mmHg 94%
    01:00 +10°C° 0.1 mm 2 mps 635 mmHg 94%
    02:00 +10°C° 0.1 mm 2 mps 635 mmHg 95%
    03:00 +9°C° 0.1 mm 2 mps 635 mmHg 96%
    04:00 +10°C° 0 mm 2 mps 635 mmHg 95%
    05:00 +10°C° 0 mm 2 mps 635 mmHg 94%
    06:00 +11°C° 0 mm 1 mps 635 mmHg 93%
    07:00 +13°C° 0 mm 2 mps 636 mmHg 82%
    08:00 +15°C° 0 mm 2 mps 636 mmHg 72%
    09:00 +18°C° 0 mm 3 mps 636 mmHg 62%
    10:00 +19°C° 0 mm 3 mps 637 mmHg 55%
    11:00 +21°C° 0 mm 4 mps 637 mmHg 47%
    12:00 +22°C° 0 mm 5 mps 637 mmHg 39%
    13:00 +22°C° 0.1 mm 5 mps 637 mmHg 40%
    14:00 +22°C° 0.1 mm 5 mps 636 mmHg 41%
    15:00 +22°C° 0.1 mm 5 mps 636 mmHg 42%
    16:00 +21°C° 0.2 mm 4 mps 636 mmHg 49%
    17:00 +20°C° 0.2 mm 3 mps 636 mmHg 56%
    18:00 +19°C° 0.2 mm 3 mps 635 mmHg 62%
    19:00 +16°C° 0.1 mm 2 mps 635 mmHg 69%
    20:00 +13°C° 0.1 mm 2 mps 634 mmHg 75%
    21:00 +10°C° 0.1 mm 1 mps 633 mmHg 82%
    22:00 +10°C° 0 mm 1 mps 633 mmHg 83%
    23:00 +9°C° 0 mm 1 mps 633 mmHg 84%

    31 May, Wednesday

    Time Temperature Precipitation Wind Pressure Humidity
    00:00 +9°C° 0 mm 1 mps 633 mmHg 85%
    01:00 +9°C° 0 mm 1 mps 633 mmHg 84%
    02:00 +8°C° 0 mm 1 mps 632 mmHg 84%
    03:00 +8°C° 0 mm 1 mps 632 mmHg 83%
    04:00 +10°C° 0 mm 1 mps 633 mmHg 81%
    05:00 +11°C° 0 mm 1 mps 633 mmHg 79%
    06:00 +12°C° 0 mm 0 mps 634 mmHg 76%
    07:00 +15°C° 0 mm 1 mps 635 mmHg 66%
    08:00 +18°C° 0 mm 1 mps 635 mmHg 55%
    09:00 +20°C° 0 mm 1 mps 636 mmHg 44%
    10:00 +20°C° 0 mm 2 mps 636 mmHg 42%
    11:00 +21°C° 0 mm 2 mps 636 mmHg 39%
    12:00 +23°C° 0 mm 2 mps 636 mmHg 37%
    13:00 +23°C° 0.3 mm 2 mps 635 mmHg 39%
    14:00 +23°C° 0.3 mm 2 mps 635 mmHg 41%
    15:00 +24°C° 0.3 mm 2 mps 635 mmHg 43%
    16:00 +23°C° 0.7 mm 2 mps 635 mmHg 51%
    17:00 +22°C° 0.7 mm 1 mps 634 mmHg 59%
    18:00 +21°C° 0.7 mm 1 mps 634 mmHg 67%
    19:00 +18°C° 0.6 mm 1 mps 633 mmHg 72%
    20:00 +14°C° 0.6 mm 1 mps 633 mmHg 78%
    21:00 +12°C° 0.6 mm 1 mps 632 mmHg 83%
    22:00 +11°C° 0.2 mm 1 mps 632 mmHg 85%
    23:00 +11°C° 0.2 mm 1 mps 632 mmHg 87%
    Show more